| time (UTC) | temp F | wind direction | speed MPH | gust MPH | rain 1hr in | rain 24hr in | rain mn in | humidity % | barometer mb |
| 20260906235012 | 88 | 275 | 3.0 | 6.0 | 0.00 | 0.00 | 0.00 | 34 | 1016.9 |
| 20260906234512 | 88 | 293 | 2.0 | 5.0 | 0.00 | 0.00 | 0.00 | 34 | 1016.9 |
| 20260906234012 | 88 | 236 | 2.0 | 5.0 | 0.00 | 0.00 | 0.00 | 33 | 1016.9 |
| 20260906233512 | 89 | 272 | 2.0 | 6.0 | 0.00 | 0.00 | 0.00 | 33 | 1016.8 |
| 20260906233012 | 89 | 243 | 2.0 | 6.0 | 0.00 | 0.00 | 0.00 | 32 | 1016.8 |
| 20260906232512 | 89 | 275 | 1.0 | 4.0 | 0.00 | 0.00 | 0.00 | 32 | 1016.8 |
| 20260906231512 | 89 | 232 | 2.0 | 7.0 | 0.00 | 0.00 | 0.00 | 31 | 1016.8 |
| 20260906231008 | 89 | 260 | 3.0 | 8.0 | 0.00 | 0.00 | 0.00 | 31 | 1016.8 |
| 20260906230508 | 90 | 182 | 3.0 | 8.0 | 0.00 | 0.00 | 0.00 | 30 | 1016.8 |
| 20260906230007 | 91 | 187 | 3.0 | 7.0 | 0.00 | 0.00 | 0.00 | 30 | 1016.8 |
| 20260906225009 | 92 | 325 | 2.0 | 4.0 | 0.00 | 0.00 | 0.00 | 30 | 1016.8 |
| 20260906224508 | 91 | 241 | 2.0 | 5.0 | 0.00 | 0.00 | 0.00 | 32 | 1016.9 |
| 20260906224007 | 91 | 252 | 2.0 | 5.0 | 0.00 | 0.00 | 0.00 | 30 | 1016.9 |
| 20260906223508 | 91 | 275 | 2.0 | 5.0 | 0.00 | 0.00 | 0.00 | 30 | 1016.9 |
| 20260906223007 | 91 | 263 | 2.0 | 7.0 | 0.00 | 0.00 | 0.00 | 32 | 1017.1 |
| 20260906222508 | 91 | 156 | 2.0 | 7.0 | 0.00 | 0.00 | 0.00 | 30 | 1017.1 |
| 20260906222008 | 90 | 247 | 1.0 | 5.0 | 0.00 | 0.00 | 0.00 | 31 | 1017.2 |
| 20260906221008 | 91 | 182 | 0.0 | 2.0 | 0.00 | 0.00 | 0.00 | 30 | 1017.2 |
| 20260906220011 | 91 | 242 | 1.0 | 3.0 | 0.00 | 0.00 | 0.00 | 30 | 1017.4 |
| 20260906215006 | 90 | 184 | 0.0 | 4.0 | 0.00 | 0.00 | 0.00 | 31 | 1017.5 |
| 20260906214504 | 90 | 179 | 1.0 | 4.0 | 0.00 | 0.00 | 0.00 | 30 | 1017.5 |
| 20260906214003 | 91 | 150 | 2.0 | 7.0 | 0.00 | 0.00 | 0.00 | 29 | 1017.5 |
| 20260906213502 | 92 | 232 | 2.0 | 7.0 | 0.00 | 0.00 | 0.00 | 28 | 1017.6 |
| 20260906212500 | 93 | 116 | 1.0 | 3.0 | 0.00 | 0.00 | 0.00 | 29 | 1017.6 |
| 20260906211456 | 91 | 100 | 0.0 | 2.0 | 0.00 | 0.00 | 0.00 | 30 | 1017.6 |
| 20260906210956 | 90 | 315 | 1.0 | 4.0 | 0.00 | 0.00 | 0.00 | 31 | 1017.6 |
| 20260906210454 | 90 | 171 | 1.0 | 4.0 | 0.00 | 0.00 | 0.00 | 31 | 1017.9 |
| 20260906205954 | 90 | 279 | 2.0 | 4.0 | 0.00 | 0.00 | 0.00 | 31 | 1017.9 |
| 20260906205455 | 91 | 228 | 2.0 | 4.0 | 0.00 | 0.00 | 0.00 | 30 | 1017.9 |
| 20260906204454 | 92 | 167 | 2.0 | 9.0 | 0.00 | 0.00 | 0.00 | 28 | 1018.0 |
| 20260906203954 | 92 | 101 | 2.0 | 9.0 | 0.00 | 0.00 | 0.00 | 29 | 1017.9 |
| 20260906203454 | 92 | 112 | 1.0 | 3.0 | 0.00 | 0.00 | 0.00 | 31 | 1017.7 |
| 20260906202954 | 92 | 113 | 1.0 | 3.0 | 0.00 | 0.00 | 0.00 | 31 | 1017.7 |
| 20260906201952 | 91 | 135 | 1.0 | 3.0 | 0.00 | 0.00 | 0.00 | 33 | 1018.0 |
| 20260906201448 | 90 | 351 | 1.0 | 4.0 | 0.00 | 0.00 | 0.00 | 32 | 1017.9 |
| 20260906200948 | 90 | 331 | 1.0 | 4.0 | 0.00 | 0.00 | 0.00 | 32 | 1017.9 |
| 20260906200450 | 90 | 341 | 1.0 | 4.0 | 0.00 | 0.00 | 0.00 | 32 | 1018.0 |
| 20260906195948 | 90 | 350 | 1.0 | 3.0 | 0.00 | 0.00 | 0.00 | 30 | 1018.1 |
| 20260906195449 | 91 | 69 | 0.0 | 2.0 | 0.00 | 0.00 | 0.00 | 29 | 1018.1 |
| 20260906194444 | 92 | 69 | 1.0 | 3.0 | 0.00 | 0.00 | 0.00 | 30 | 1018.3 |
| 20260906193943 | 92 | 96 | 0.0 | 2.0 | 0.00 | 0.00 | 0.00 | 30 | 1018.3 |
| 20260906192942 | 92 | 68 | 0.0 | 3.0 | 0.00 | 0.00 | 0.00 | 31 | 1018.4 |
| 20260906192442 | 92 | 68 | 0.0 | 3.0 | 0.00 | 0.00 | 0.00 | 30 | 1018.4 |
| 20260906191945 | 91 | 144 | 0.0 | 2.0 | 0.00 | 0.00 | 0.00 | 32 | 1018.4 |
| 20260906191442 | 91 | 267 | 1.0 | 5.0 | 0.00 | 0.00 | 0.00 | 30 | 1018.5 |
| 20260906190442 | 91 | 345 | 1.0 | 4.0 | 0.00 | 0.00 | 0.00 | 30 | 1018.8 |
| 20260906184940 | 89 | 346 | 1.0 | 4.0 | 0.00 | 0.00 | 0.00 | 32 | 1019.1 |
| 20260906184438 | 89 | 86 | 0.0 | 3.0 | 0.00 | 0.00 | 0.00 | 32 | 1019.2 |
| 20260906183939 | 89 | 339 | 0.0 | 2.0 | 0.00 | 0.00 | 0.00 | 31 | 1019.2 |
| 20260906183438 | 90 | 342 | 1.0 | 5.0 | 0.00 | 0.00 | 0.00 | 31 | 1019.3 |
| 20260906182938 | 89 | 319 | 1.0 | 5.0 | 0.00 | 0.00 | 0.00 | 34 | 1019.4 |
| 20260906182436 | 89 | 338 | 1.0 | 7.0 | 0.00 | 0.00 | 0.00 | 32 | 1019.4 |
| 20260906181935 | 90 | 355 | 1.0 | 7.0 | 0.00 | 0.00 | 0.00 | 31 | 1019.6 |
| 20260906181434 | 90 | 347 | 0.0 | 3.0 | 0.00 | 0.00 | 0.00 | 32 | 1019.7 |
| 20260906180932 | 89 | 34 | 0.0 | 2.0 | 0.00 | 0.00 | 0.00 | 32 | 1019.7 |
| 20260906180431 | 88 | 5 | 0.0 | 4.0 | 0.00 | 0.00 | 0.00 | 33 | 1019.7 |
| 20260906174928 | 88 | 15 | 1.0 | 4.0 | 0.00 | 0.00 | 0.00 | 33 | 1019.9 |
| 20260906174426 | 87 | 326 | 1.0 | 4.0 | 0.00 | 0.00 | 0.00 | 32 | 1019.9 |
| 20260906173925 | 87 | 349 | 0.0 | 2.0 | 0.00 | 0.00 | 0.00 | 35 | 1019.9 |
| 20260906173420 | 87 | 336 | 0.0 | 3.0 | 0.00 | 0.00 | 0.00 | 33 | 1020.0 |
| 20260906172918 | 87 | 343 | 0.0 | 3.0 | 0.00 | 0.00 | 0.00 | 35 | 1020.0 |
| 20260906171916 | 87 | 42 | 0.0 | 2.0 | 0.00 | 0.00 | 0.00 | 32 | 1020.1 |
| 20260906171415 | 87 | 53 | 0.0 | 3.0 | 0.00 | 0.00 | 0.00 | 34 | 1020.1 |
| 20260906170413 | 87 | 327 | 1.0 | 4.0 | 0.00 | 0.00 | 0.00 | 35 | 1020.1 |
| 20260906165912 | 86 | 329 | 1.0 | 4.0 | 0.00 | 0.00 | 0.00 | 35 | 1020.1 |
| 20260906165410 | 87 | 355 | 1.0 | 4.0 | 0.00 | 0.00 | 0.00 | 34 | 1020.2 |
| 20260906164909 | 86 | 30 | 1.0 | 4.0 | 0.00 | 0.00 | 0.00 | 35 | 1020.2 |
| 20260906163902 | 85 | 34 | 1.0 | 4.0 | 0.00 | 0.00 | 0.00 | 36 | 1020.1 |
| 20260906162901 | 85 | 343 | 1.0 | 5.0 | 0.00 | 0.00 | 0.00 | 36 | 1020.2 |
| 20260906162357 | 85 | 345 | 0.0 | 2.0 | 0.00 | 0.00 | 0.00 | 37 | 1020.2 |
| 20260906161856 | 85 | 63 | 0.0 | 1.0 | 0.00 | 0.00 | 0.00 | 38 | 1020.2 |
| 20260906161356 | 84 | 344 | 0.0 | 0.0 | 0.00 | 0.00 | 0.00 | 38 | 1020.2 |
| 20260906160356 | 84 | 355 | 0.0 | 3.0 | 0.00 | 0.00 | 0.00 | 39 | 1020.2 |
| 20260906155854 | 84 | 122 | 0.0 | 2.0 | 0.00 | 0.00 | 0.00 | 39 | 1020.2 |
| 20260906155352 | 84 | 310 | 0.0 | 1.0 | 0.00 | 0.00 | 0.00 | 41 | 1020.4 |
| 20260906154852 | 83 | 310 | 0.0 | 0.0 | 0.00 | 0.00 | 0.00 | 43 | 1020.4 |
| 20260906154350 | 82 | 310 | 0.0 | 0.0 | 0.00 | 0.00 | 0.00 | 42 | 1020.4 |
| 20260906153849 | 82 | 310 | 0.0 | 0.0 | 0.00 | 0.00 | 0.00 | 41 | 1020.4 |
| 20260906153347 | 82 | 310 | 0.0 | 2.0 | 0.00 | 0.00 | 0.00 | 40 | 1020.5 |
| 20260906152850 | 82 | 310 | 0.0 | 2.0 | 0.00 | 0.00 | 0.00 | 43 | 1020.5 |
| 20260906152346 | 81 | 310 | 0.0 | 0.0 | 0.00 | 0.00 | 0.00 | 43 | 1020.7 |
| 20260906151844 | 81 | 310 | 0.0 | 0.0 | 0.00 | 0.00 | 0.00 | 43 | 1020.6 |
| 20260906151344 | 81 | 310 | 0.0 | 0.0 | 0.00 | 0.00 | 0.00 | 44 | 1020.6 |
| 20260906150844 | 81 | 290 | 0.0 | 0.0 | 0.00 | 0.00 | 0.00 | 43 | 1020.5 |
| 20260906150341 | 81 | 290 | 0.0 | 0.0 | 0.00 | 0.00 | 0.00 | 45 | 1020.6 |
| 20260906145842 | 80 | 290 | 0.0 | 0.0 | 0.00 | 0.00 | 0.00 | 46 | 1020.6 |
| 20260906144841 | 79 | 290 | 0.0 | 1.0 | 0.00 | 0.00 | 0.00 | 46 | 1020.5 |
| 20260906144342 | 79 | 290 | 0.0 | 0.0 | 0.00 | 0.00 | 0.00 | 48 | 1020.5 |
| 20260906143841 | 78 | 290 | 0.0 | 0.0 | 0.00 | 0.00 | 0.00 | 49 | 1020.6 |
| 20260906142842 | 76 | 290 | 0.0 | 0.0 | 0.00 | 0.00 | 0.00 | 51 | 1020.5 |
| 20260906142341 | 75 | 290 | 0.0 | 0.0 | 0.00 | 0.00 | 0.00 | 53 | 1020.5 |
| 20260906141842 | 74 | 290 | 0.0 | 0.0 | 0.00 | 0.00 | 0.00 | 55 | 1020.5 |
| 20260906141342 | 73 | 290 | 0.0 | 0.0 | 0.00 | 0.00 | 0.00 | 55 | 1020.5 |
| 20260906140841 | 72 | 290 | 0.0 | 0.0 | 0.00 | 0.00 | 0.00 | 56 | 1020.4 |
| 20260906140340 | 72 | 290 | 0.0 | 0.0 | 0.00 | 0.00 | 0.00 | 59 | 1020.2 |
| 20260906135840 | 71 | 290 | 0.0 | 0.0 | 0.00 | 0.00 | 0.00 | 60 | 1020.2 |
| 20260906135340 | 71 | 290 | 0.0 | 0.0 | 0.00 | 0.00 | 0.00 | 59 | 1020.2 |
| 20260906134840 | 71 | 290 | 0.0 | 0.0 | 0.00 | 0.00 | 0.00 | 61 | 1020.2 |
| 20260906133837 | 71 | 290 | 0.0 | 0.0 | 0.00 | 0.00 | 0.00 | 59 | 1020.1 |
| 20260906133335 | 71 | 290 | 0.0 | 0.0 | 0.00 | 0.00 | 0.00 | 60 | 1019.9 |
| 20260906132838 | 71 | 290 | 0.0 | 0.0 | 0.00 | 0.00 | 0.00 | 59 | 1019.8 |
| 20260906132336 | 71 | 290 | 0.0 | 0.0 | 0.00 | 0.00 | 0.00 | 59 | 1019.8 |
| 20260906131334 | 71 | 282 | 0.0 | 0.0 | 0.00 | 0.00 | 0.00 | 59 | 1019.7 |
| 20260906130834 | 71 | 282 | 0.0 | 0.0 | 0.00 | 0.00 | 0.00 | 59 | 1019.7 |
| 20260906130334 | 71 | 282 | 0.0 | 0.0 | 0.00 | 0.00 | 0.00 | 58 | 1019.6 |
| 20260906125834 | 71 | 282 | 0.0 | 0.0 | 0.00 | 0.00 | 0.00 | 58 | 1019.6 |
| 20260906125334 | 71 | 282 | 0.0 | 0.0 | 0.00 | 0.00 | 0.00 | 58 | 1019.6 |
| 20260906124832 | 71 | 282 | 0.0 | 0.0 | 0.00 | 0.00 | 0.00 | 58 | 1019.6 |
| 20260906124330 | 71 | 282 | 0.0 | 0.0 | 0.00 | 0.00 | 0.00 | 58 | 1019.4 |
| 20260906123830 | 72 | 282 | 0.0 | 0.0 | 0.00 | 0.00 | 0.00 | 57 | 1019.4 |
| 20260906123328 | 72 | 282 | 0.0 | 0.0 | 0.00 | 0.00 | 0.00 | 57 | 1019.6 |
| 20260906122828 | 72 | 282 | 0.0 | 0.0 | 0.00 | 0.00 | 0.00 | 57 | 1019.4 |
| 20260906122326 | 72 | 282 | 0.0 | 0.0 | 0.00 | 0.00 | 0.00 | 57 | 1019.4 |
| 20260906120820 | 72 | 282 | 0.0 | 0.0 | 0.00 | 0.00 | 0.00 | 57 | 1019.3 |
| 20260906120316 | 72 | 282 | 0.0 | 0.0 | 0.00 | 0.00 | 0.00 | 56 | 1019.4 |
| 20260906115814 | 73 | 282 | 0.0 | 0.0 | 0.00 | 0.00 | 0.00 | 56 | 1019.4 |
| 20260906114817 | 73 | 282 | 1.0 | 3.0 | 0.00 | 0.00 | 0.00 | 55 | 1019.3 |
| 20260906114312 | 73 | 265 | 0.0 | 2.0 | 0.00 | 0.00 | 0.00 | 56 | 1019.6 |
| 20260906113809 | 73 | 254 | 0.0 | 3.0 | 0.00 | 0.00 | 0.00 | 55 | 1019.4 |
| 20260906113310 | 73 | 254 | 1.0 | 3.0 | 0.00 | 0.00 | 0.00 | 55 | 1019.4 |
| 20260906112807 | 73 | 268 | 1.0 | 2.0 | 0.00 | 0.00 | 0.00 | 55 | 1019.3 |
| 20260906112307 | 73 | 264 | 1.0 | 2.0 | 0.00 | 0.00 | 0.00 | 56 | 1019.3 |
| 20260906111804 | 73 | 264 | 1.0 | 2.0 | 0.00 | 0.00 | 0.00 | 55 | 1019.3 |
| 20260906111303 | 73 | 269 | 0.0 | 2.0 | 0.00 | 0.00 | 0.00 | 55 | 1019.3 |
| 20260906110804 | 73 | 271 | 0.0 | 2.0 | 0.00 | 0.00 | 0.00 | 56 | 1019.2 |
| 20260906110301 | 73 | 273 | 0.0 | 0.0 | 0.00 | 0.00 | 0.00 | 56 | 1019.2 |
| 20260906104754 | 73 | 273 | 0.0 | 0.0 | 0.00 | 0.00 | 0.00 | 56 | 1019.2 |
| 20260906104254 | 73 | 273 | 0.0 | 0.0 | 0.00 | 0.00 | 0.00 | 56 | 1019.4 |
| 20260906103254 | 73 | 271 | 0.0 | 0.0 | 0.00 | 0.00 | 0.00 | 55 | 1019.2 |
| 20260906102751 | 73 | 271 | 0.0 | 1.0 | 0.00 | 0.00 | 0.00 | 54 | 1019.2 |
| 20260906101251 | 74 | 267 | 1.0 | 3.0 | 0.00 | 0.00 | 0.00 | 53 | 1019.1 |
| 20260906100755 | 74 | 269 | 1.0 | 2.0 | 0.00 | 0.00 | 0.00 | 53 | 1019.2 |
| 20260906100252 | 74 | 273 | 0.0 | 0.0 | 0.00 | 0.00 | 0.00 | 52 | 1019.2 |
| 20260906095752 | 74 | 273 | 0.0 | 0.0 | 0.00 | 0.00 | 0.00 | 52 | 1019.2 |
| 20260906095252 | 74 | 273 | 0.0 | 0.0 | 0.00 | 0.00 | 0.00 | 52 | 1019.3 |
| 20260906094750 | 74 | 273 | 0.0 | 2.0 | 0.00 | 0.00 | 0.00 | 52 | 1019.2 |
| 20260906094250 | 75 | 273 | 1.0 | 2.0 | 0.00 | 0.00 | 0.00 | 52 | 1019.3 |
| 20260906090243 | 75 | 269 | 0.0 | 0.0 | 0.00 | 0.00 | 0.00 | 51 | 1019.6 |
| 20260906085744 | 75 | 269 | 0.0 | 0.0 | 0.00 | 0.00 | 0.00 | 52 | 1019.6 |
| 20260906084742 | 75 | 271 | 0.0 | 0.0 | 0.00 | 0.00 | 0.00 | 52 | 1019.6 |
| 20260906084240 | 74 | 271 | 0.0 | 1.0 | 0.00 | 0.00 | 0.00 | 53 | 1019.6 |
| 20260906083240 | 75 | 273 | 1.0 | 2.0 | 0.00 | 0.00 | 0.00 | 53 | 1019.7 |
| 20260906082740 | 75 | 269 | 0.0 | 2.0 | 0.00 | 0.00 | 0.00 | 53 | 1019.8 |
| 20260906082240 | 75 | 269 | 0.0 | 0.0 | 0.00 | 0.00 | 0.00 | 53 | 1019.9 |
| 20260906081738 | 75 | 269 | 0.0 | 0.0 | 0.00 | 0.00 | 0.00 | 53 | 1019.9 |
| 20260906080234 | 75 | 269 | 1.0 | 3.0 | 0.00 | 0.00 | 0.00 | 52 | 1019.9 |
| 20260906075730 | 75 | 263 | 1.0 | 3.0 | 0.00 | 0.00 | 0.00 | 52 | 1019.9 |
| 20260906075229 | 75 | 263 | 1.0 | 3.0 | 0.00 | 0.00 | 0.00 | 52 | 1019.9 |
| 20260906074730 | 75 | 263 | 0.0 | 3.0 | 0.00 | 0.00 | 0.00 | 52 | 1019.9 |
| 20260906073730 | 76 | 266 | 0.0 | 0.0 | 0.00 | 0.00 | 0.00 | 51 | 1019.9 |
| 20260906073230 | 76 | 273 | 0.0 | 0.0 | 0.00 | 0.00 | 0.00 | 51 | 1019.9 |
| 20260906072727 | 76 | 273 | 0.0 | 0.0 | 0.00 | 0.00 | 0.00 | 51 | 1019.9 |
| 20260906072227 | 76 | 288 | 0.0 | 0.0 | 0.00 | 0.00 | 0.00 | 50 | 1019.9 |
| 20260906071227 | 76 | 288 | 0.0 | 0.0 | 0.00 | 0.00 | 0.00 | 50 | 1019.9 |
| 20260906070727 | 76 | 288 | 0.0 | 0.0 | 0.00 | 0.00 | 0.00 | 51 | 1020.0 |
| 20260906065728 | 76 | 288 | 0.0 | 0.0 | 0.00 | 0.00 | 0.00 | 50 | 1020.0 |
| 20260906065227 | 76 | 288 | 0.0 | 0.0 | 0.00 | 0.00 | 0.00 | 50 | 1020.0 |
| 20260906064725 | 76 | 288 | 0.0 | 0.0 | 0.00 | 0.00 | 0.00 | 50 | 1020.0 |
| 20260906064227 | 76 | 288 | 0.0 | 0.0 | 0.00 | 0.00 | 0.00 | 50 | 1019.9 |
| 20260906063722 | 76 | 288 | 0.0 | 0.0 | 0.00 | 0.00 | 0.00 | 50 | 1019.9 |
| 20260906063222 | 76 | 310 | 1.0 | 2.0 | 0.00 | 0.00 | 0.00 | 50 | 1020.0 |
| 20260906062716 | 76 | 280 | 1.0 | 3.0 | 0.00 | 0.00 | 0.00 | 50 | 1020.0 |
| 20260906061715 | 76 | 269 | 2.0 | 3.0 | 0.00 | 0.00 | 0.00 | 49 | 1020.0 |
| 20260906061214 | 76 | 269 | 2.0 | 3.0 | 0.00 | 0.00 | 0.00 | 50 | 1020.0 |
| 20260906060713 | 76 | 261 | 1.0 | 3.0 | 0.00 | 0.00 | 0.00 | 49 | 1020.0 |
| 20260906060212 | 76 | 261 | 2.0 | 3.0 | 0.00 | 0.00 | 0.00 | 49 | 1020.0 |
| 20260906055712 | 76 | 260 | 2.0 | 3.0 | 0.00 | 0.00 | 0.00 | 49 | 1020.1 |
| 20260906055212 | 76 | 263 | 2.0 | 3.0 | 0.00 | 0.00 | 0.00 | 49 | 1020.0 |
| 20260906054711 | 76 | 268 | 2.0 | 3.0 | 0.00 | 0.00 | 0.00 | 49 | 1020.1 |
| 20260906054211 | 76 | 273 | 2.0 | 3.0 | 0.00 | 0.00 | 0.00 | 50 | 1020.1 |
| 20260906053713 | 76 | 269 | 2.0 | 3.0 | 0.00 | 0.00 | 0.00 | 49 | 1020.1 |
| 20260906053211 | 76 | 264 | 2.0 | 3.0 | 0.00 | 0.00 | 0.00 | 49 | 1020.1 |
| 20260906052210 | 76 | 270 | 1.0 | 3.0 | 0.00 | 0.00 | 0.00 | 49 | 1020.1 |
| 20260906051708 | 76 | 257 | 1.0 | 2.0 | 0.00 | 0.00 | 0.00 | 49 | 1020.1 |
| 20260906051208 | 76 | 258 | 0.0 | 1.0 | 0.00 | 0.00 | 0.00 | 48 | 1020.1 |
| 20260906050708 | 76 | 269 | 1.0 | 3.0 | 0.00 | 0.00 | 0.00 | 48 | 1020.1 |
| 20260906050209 | 76 | 269 | 1.0 | 3.0 | 0.00 | 0.00 | 0.00 | 48 | 1020.1 |
| 20260906045206 | 76 | 264 | 0.0 | 0.0 | 0.00 | 0.00 | 0.00 | 48 | 1020.1 |
| 20260906044706 | 77 | 259 | 0.0 | 2.0 | 0.00 | 0.00 | 0.00 | 47 | 1020.2 |
| 20260906044204 | 77 | 259 | 1.0 | 3.0 | 0.00 | 0.00 | 0.00 | 47 | 1020.2 |
| 20260906043704 | 76 | 259 | 2.0 | 3.0 | 0.00 | 0.00 | 0.00 | 47 | 1020.1 |
| 20260906043204 | 77 | 257 | 2.0 | 3.0 | 0.00 | 0.00 | 0.00 | 48 | 1020.1 |
| 20260906042705 | 77 | 273 | 2.0 | 3.0 | 0.00 | 0.00 | 0.00 | 47 | 1020.1 |
| 20260906042204 | 77 | 265 | 2.0 | 3.0 | 0.00 | 0.00 | 0.00 | 47 | 1020.0 |
| 20260906041705 | 78 | 267 | 1.0 | 3.0 | 0.00 | 0.00 | 0.00 | 46 | 1020.0 |
| 20260906041204 | 78 | 265 | 1.0 | 2.0 | 0.00 | 0.00 | 0.00 | 46 | 1020.0 |
| 20260906035700 | 78 | 236 | 1.0 | 3.0 | 0.00 | 0.00 | 0.00 | 45 | 1020.0 |
| 20260906035200 | 78 | 254 | 1.0 | 3.0 | 0.00 | 0.00 | 0.00 | 45 | 1019.9 |
| 20260906034701 | 78 | 268 | 2.0 | 3.0 | 0.00 | 0.00 | 0.00 | 45 | 1020.0 |
| 20260906034156 | 78 | 265 | 2.0 | 3.0 | 0.00 | 0.00 | 0.00 | 45 | 1020.0 |
| 20260906033655 | 78 | 265 | 2.0 | 3.0 | 0.00 | 0.00 | 0.00 | 45 | 1019.9 |
| 20260906033156 | 78 | 257 | 2.0 | 3.0 | 0.00 | 0.00 | 0.00 | 45 | 1019.9 |
| 20260906032651 | 78 | 261 | 2.0 | 3.0 | 0.00 | 0.00 | 0.00 | 45 | 1019.8 |
| 20260906031648 | 77 | 263 | 2.0 | 3.0 | 0.00 | 0.00 | 0.00 | 46 | 1019.8 |
| 20260906031147 | 77 | 266 | 2.0 | 3.0 | 0.00 | 0.00 | 0.00 | 45 | 1019.7 |
| 20260906030648 | 78 | 266 | 2.0 | 3.0 | 0.00 | 0.00 | 0.00 | 46 | 1019.6 |
| 20260906030148 | 78 | 280 | 2.0 | 3.0 | 0.00 | 0.00 | 0.00 | 45 | 1019.6 |
| 20260906025648 | 78 | 265 | 1.0 | 3.0 | 0.00 | 0.00 | 0.00 | 44 | 1019.6 |
| 20260906024646 | 79 | 273 | 1.0 | 2.0 | 0.00 | 0.00 | 0.00 | 44 | 1019.4 |
| 20260906024146 | 79 | 266 | 0.0 | 2.0 | 0.00 | 0.00 | 0.00 | 44 | 1019.4 |
| 20260906022639 | 80 | 247 | 1.0 | 4.0 | 0.00 | 0.00 | 0.00 | 43 | 1019.3 |
| 20260906021633 | 80 | 263 | 0.0 | 3.0 | 0.00 | 0.00 | 0.00 | 42 | 1019.3 |
| 20260906021131 | 80 | 264 | 1.0 | 2.0 | 0.00 | 0.00 | 0.00 | 42 | 1019.3 |
| 20260906020630 | 80 | 254 | 1.0 | 2.0 | 0.00 | 0.00 | 0.00 | 41 | 1019.2 |
| 20260906020124 | 80 | 245 | 0.0 | 2.0 | 0.00 | 0.00 | 0.00 | 42 | 1019.3 |
| 20260906015116 | 80 | 278 | 1.0 | 3.0 | 0.00 | 0.00 | 0.00 | 42 | 1019.3 |
| 20260906014616 | 80 | 267 | 1.0 | 2.0 | 0.00 | 0.00 | 0.00 | 43 | 1019.3 |
| 20260906013618 | 80 | 256 | 1.0 | 3.0 | 0.00 | 0.00 | 0.00 | 44 | 1019.6 |
| 20260906012613 | 81 | 269 | 1.0 | 3.0 | 0.00 | 0.00 | 0.00 | 44 | 1019.4 |
| 20260906012108 | 81 | 263 | 1.0 | 4.0 | 0.00 | 0.00 | 0.00 | 43 | 1019.4 |
| 20260906011608 | 81 | 272 | 2.0 | 6.0 | 0.00 | 0.00 | 0.00 | 43 | 1019.6 |
| 20260906011109 | 81 | 299 | 2.0 | 6.0 | 0.00 | 0.00 | 0.00 | 41 | 1019.6 |
| 20260906010607 | 81 | 263 | 2.0 | 4.0 | 0.00 | 0.00 | 0.00 | 41 | 1019.4 |
| 20260906010107 | 81 | 234 | 2.0 | 6.0 | 0.00 | 0.00 | 0.00 | 41 | 1019.4 |
| 20260906005606 | 81 | 244 | 2.0 | 7.0 | 0.00 | 0.00 | 0.00 | 40 | 1019.4 |
| 20260906005106 | 81 | 307 | 2.0 | 7.0 | 0.00 | 0.00 | 0.00 | 42 | 1019.3 |
| 20260906004107 | 81 | 247 | 4.0 | 7.0 | 0.00 | 0.00 | 0.00 | 41 | 1019.3 |
| 20260906003608 | 81 | 197 | 3.0 | 7.0 | 0.00 | 0.00 | 0.00 | 41 | 1019.2 |
| 20260906003106 | 81 | 233 | 3.0 | 7.0 | 0.00 | 0.00 | 0.00 | 40 | 1019.3 |
| 20260906002105 | 82 | 233 | 2.0 | 6.0 | 0.00 | 0.00 | 0.00 | 39 | 1019.3 |
| 20260906001602 | 82 | 232 | 2.0 | 8.0 | 0.00 | 0.00 | 0.00 | 40 | 1019.3 |
| 20260906001102 | 82 | 207 | 2.0 | 8.0 | 0.00 | 0.00 | 0.00 | 40 | 1019.3 |
| 20260906000100 | 82 | 192 | 3.0 | 7.0 | 0.00 | 0.00 | 0.00 | 42 | 1019.3 |
| 20260905235559 | 81 | 229 | 2.0 | 6.0 | 0.00 | 0.00 | 0.00 | 42 | 1019.3 |